Location: Brighton Point
(40.6144°N, 111.7933°W)
Time: 16:34:42
(UTC+00:00)

ISS - Visible Passes

Search period start: 08 March 2021 00:00
Search period end: 18 March 2021 00:00
Orbit: 417 x 422 km, 51.6° (Epoch: 08 March)

Date Brightness Start Highest point End Pass type
(mag) Time Alt. Az. Time Alt. Az. Time Alt. Az.
08 Mar -2.1 12:30:59 13° NNW 12:33:28 29° NNE 12:36:28 10° E visible
09 Mar -1.6 11:45:32 22° NNE 11:45:50 22° NNE 11:48:32 10° ENE visible
09 Mar -3.7 13:19:34 10° WNW 13:22:55 67° SW 13:26:13 10° SE visible
10 Mar -0.3 11:00:11 11° ENE 11:00:11 11° ENE 11:00:31 10° ENE visible
10 Mar -3.6 12:33:09 19° NW 12:35:26 71° NE 12:38:46 10° ESE visible
11 Mar -2.7 11:47:57 43° NNE 11:47:57 43° NNE 11:51:07 10° ESE visible
12 Mar -0.5 11:02:52 13° E 11:02:52 13° E 11:03:18 10° E visible
12 Mar -3.1 12:35:53 26° W 12:37:09 37° SW 12:40:16 10° SSE visible
13 Mar -2.5 11:51:01 33° SSE 11:51:01 33° SSE 11:53:03 10° SE visible
14 Mar -1.6 12:39:23 12° SW 12:39:23 12° SW 12:40:11 10° SSW visible
16 Mar -1.2 02:55:32 10° S 02:55:35 10° S 02:55:35 10° S visible
17 Mar -1.3 03:43:21 10° SW 03:44:16 17° SW 03:44:16 17° SW visible
